Temp
14 14 14 14 14 14 14 14 14 14 14 15 14 14 14 14 14 14 14 14 14 14 14 14 14 14 14 14 14 14 14 14 15 15 15 14 14 14 14 14 14 14 14 14 14 14 14 14 14 14 14 14 14 14 14 14 14 14 14 14 14 14 15 15 15 15 15 15 16
14 14 14 14 14 14 14 14 14 14 15 15 15 14 14 14 14 14 15 14 14 14 14 14 14 14 14 14 14 14 14 14 14 14 15 15 14 14 14 14 14 14 14 14 14 14 14 14 14 14 14 14 14 13 13 13 13 13 13 14 14 14 14 14 14 14 15 15 15
12 13 13 14 14 14 14 14 14 14 15 15 15 15 14 14 14 14 15 15 15 14 14 14 14 14 14 14 14 14 14 14 14 14 15 15 15 15 14 14 14 14 14 14 14 14 14 14 14 14 14 14 14 14 13 13 13 13 13 13 13 13 13 13 14 14 14 14 15
11 11 12 12 12 13 13 13 13 14 14 14 14 14 14 14 14 14 14 14 14 15 15 14 14 14 14 14 14 14 14 14 14 14 15 15 15 15 14 14 14 14 14 14 14 14 14 14 14 14 14 13 13 13 13 13 13 13 13 13 13 13 13 13 13 13 14 14 14
9 10 10 10 11 11 11 11 11 12 12 12 13 13 13 13 14 14 14 14 14 14 14 14 14 14 14 14 14 14 14 14 14 14 14 14 14 14 14 14 14 14 14 14 14 14 14 14 14 14 13 13 13 13 13 13 13 13 13 13 13 13 13 13 13 13 13 14 14
8 8 9 9 9 10 10 10 10 10 11 11 11 11 12 12 12 13 13 14 14 14 14 14 14 14 14 14 14 14 14 14 14 14 14 14 14 14 14 14 14 14 14 14 14 14 14 14 14 14 14 13 13 13 14 13 13 13 13 13 13 13 13 13 14 14 14 14 14
7 8 8 8 8 8 9 9 9 10 10 10 10 10 11 11 11 11 12 12 13 14 14 14 14 14 14 14 14 14 14 14 14 15 14 14 14 14 14 14 14 14 14 14 14 14 14 14 14 14 14 14 14 14 14 14 14 13 13 13 13 13 13 13 14 14 14 14 14
7 7 7 7 7 7 8 8 8 9 9 9 9 9 10 10 10 11 11 11 12 13 13 14 14 14 14 14 14 14 14 14 14 14 14 14 14 14 14 14 14 14 14 14 14 14 14 14 14 14 14 14 14 14 14 14 14 14 14 14 14 14 14 14 14 14 14 14 14
6 6 6 6 7 7 7 7 8 8 8 8 8 8 9 9 10 10 10 10 11 11 12 13 13 13 14 14 14 14 14 14 14 14 14 14 14 14 14 14 14 14 14 14 14 14 14 14 14 14 14 14 14 14 14 14 14 14 14 14 14 14 14 14 14 14 14 14 14
5 5 6 6 6 6 7 7 7 8 7 7 7 8 8 9 9 9 9 9 10 10 11 11 12 12 13 13 13 13 13 13 13 14 14 14 14 14 14 14 14 14 14 14 14 14 14 14 13 13 13 13 14 14 14 14 13 13 13 13 13 13 13 13 13 13 13 13 13
4 5 5 5 5 6 7 7 7 7 7 7 7 7 7 8 8 8 9 9 9 10 10 10 11 11 11 12 12 13 13 13 13 13 13 14 14 14 14 14 14 14 14 13 13 13 13 13 13 13 13 13 13 13 13 13 13 13 13 13 13 13 13 13 13 13 13 13 13
4 4 4 5 5 6 7 7 6 6 6 6 6 7 7 7 7 8 9 9 9 9 9 10 10 11 11 11 11 12 12 13 13 13 13 13 14 13 13 13 13 13 13 13 13 13 13 13 13 13 13 13 13 13 13 13 13 13 13 13 13 13 13 13 13 13 13 13 13
3 4 4 5 6 6 6 6 6 6 6 6 6 6 7 7 8 8 8 8 8 8 8 9 9 10 10 10 11 11 12 12 12 12 12 13 13 13 13 13 13 13 13 13 13 13 13 13 13 13 13 13 13 13 13 13 13 13 13 13 13 13 13 13 13 13 13 13 13
3 3 4 5 5 6 5 5 5 5 5 6 6 6 7 7 7 8 8 7 7 7 7 8 9 9 9 9 10 10 11 11 11 11 11 11 12 12 12 12 13 13 13 13 13 13 13 13 13 13 13 13 13 13 13 13 13 13 13 13 12 13 13 13 13 13 13 13 13
3 3 4 4 4 5 4 4 4 5 5 5 6 6 7 7 7 7 7 6 6 6 6 7 7 8 8 9 9 9 10 10 10 10 11 11 11 11 11 11 11 12 12 13 13 13 13 13 13 13 13 13 13 13 13 13 13 13 13 13 12 12 12 12 12 12 13 13 13
2 2 3 3 3 3 3 3 4 4 4 5 5 5 6 6 6 6 6 6 6 6 6 6 6 7 8 8 9 9 9 9 9 9 9 9 10 10 10 10 11 11 11 11 12 12 13 13 13 13 13 13 13 13 13 13 13 13 13 13 13 13 13 13 12 12 12 12 12
2 2 2 2 2 2 2 2 3 3 3 4 4 4 4 4 5 5 5 5 5 6 5 5 6 6 6 7 8 8 8 8 8 8 8 8 8 9 9 10 10 10 10 10 11 11 11 12 12 12 13 13 13 13 13 13 12 12 12 12 12 13 13 13 13 12 12 12 12
1 1 1 2 2 2 2 2 2 2 2 3 3 3 3 3 4 4 4 5 5 5 5 5 5 5 6 6 6 7 7 7 7 7 7 7 7 8 8 8 9 9 9 9 10 10 10 10 11 11 12 12 12 12 12 12 12 12 12 12 12 12 12 13 13 12 12 12 12
1 1 1 1 1 1 1 2 2 2 2 2 2 2 3 3 3 4 4 5 5 5 5 5 5 5 5 5 5 6 6 6 6 6 6 7 7 7 7 7 8 8 8 8 9 9 10 10 10 10 10 11 11 11 12 12 12 12 12 12 12 12 12 12 12 12 12 12 12
0 1 1 1 1 1 1 1 1 2 2 2 2 2 3 3 3 4 4 4 4 5 5 5 5 5 5 5 5 5 5 5 6 6 6 7 7 7 7 7 7 7 7 7 8 8 8 9 9 9 9 10 10 10 11 11 11 12 12 12 12 12 12 12 12 12 12 12 12
0 0 0 1 1 1 1 1 1 2 2 2 2 2 3 3 3 4 4 4 4 4 5 4 4 4 4 5 5 4 4 4 5 5 6 6 7 7 7 7 7 7 7 7 7 7 7 8 8 8 8 8 9 9 10 10 11 11 11 12 12 12 12 12 12 12 12 12 12
-0 0 0 1 1 1 1 1 2 2 2 2 2 3 3 3 3 3 3 4 4 4 4 4 4 3 4 4 4 4 4 4 4 4 5 5 6 6 7 7 7 7 6 6 6 6 7 7 7 7 7 7 8 8 8 9 9 10 10 11 11 11 12 12 12 12 12 12 12
-0 0 0 0 1 1 1 2 2 2 3 3 3 3 3 3 3 3 3 4 4 3 3 3 3 3 3 3 3 3 3 4 4 4 4 4 5 5 6 6 6 6 6 6 6 5 5 5 5 5 6 6 7 7 7 7 8 8 9 9 10 10 11 11 12 12 12 12 12
-0 -0 0 0 1 1 1 2 2 2 2 2 2 3 3 3 3 3 4 4 4 3 3 3 2 2 3 3 3 3 3 3 4 4 4 4 4 4 5 5 5 5 5 5 5 4 4 4 4 5 5 5 5 6 6 6 7 7 8 8 9 9 10 10 10 11 12 12 12
-1 -0 -0 0 0 1 1 1 1 1 1 1 2 2 2 2 3 3 3 3 3 3 3 3 3 3 3 3 3 3 2 2 3 3 3 3 3 3 4 4 4 4 4 4 4 4 4 4 4 4 4 4 4 5 5 5 6 6 7 7 7 8 9 9 10 10 10 11 12
-1 -1 -1 -0 -0 0 0 0 0 0 0 1 1 1 1 1 1 2 2 2 2 2 2 3 3 3 3 3 3 3 3 2 2 2 2 2 2 3 3 3 3 3 3 3 3 3 4 4 4 4 4 4 4 4 4 5 5 5 6 6 6 7 7 8 9 9 9 10 10
-1 -1 -1 -1 -0 -0 -0 -0 -0 -0 0 0 0 0 0 0 1 1 1 1 1 1 1 1 1 2 2 2 3 3 3 3 2 2 2 2 2 2 2 2 2 2 2 2 3 3 3 3 3 3 3 3 3 3 3 4 4 4 5 5 6 6 6 7 7 8 8 9 9
-2 -1 -1 -1 -1 -1 -1 -0 -0 -0 -0 -0 -0 0 0 1 1 1 1 0 0 0 0 0 0 0 1 1 1 1 2 2 2 2 2 2 2 2 2 2 2 2 2 2 2 2 3 3 3 3 3 3 3 3 3 3 3 4 4 4 5 5 5 6 6 7 7 8 8
-1 -1 -1 -1 -1 -1 -1 -1 -1 -1 -1 -1 -0 0 0 1 1 1 1 0 0 0 -0 -0 -0 -0 -0 -0 -0 0 0 0 0 1 1 1 2 2 2 2 2 2 2 2 2 2 2 2 2 2 3 2 2 2 2 3 3 3 3 3 4 4 5 5 5 6 6 7 7
-1 -1 -1 -1 -1 -1 -1 -1 -1 -1 -1 -1 -0 -0 0 0 0 0 0 -0 -0 -1 -1 -0 0 0 -0 -0 -0 -0 -0 -1 -1 -1 -1 -0 -0 0 1 1 2 2 2 2 2 2 2 2 2 2 2 2 2 2 2 2 2 2 3 3 3 3 4 4 5 5 6 6 6
-1 -1 -1 -1 -1 -1 -1 -1 -1 -1 -1 -1 -1 -1 -1 -1 -1 -1 -1 -1 -1 -1 -0 0 0 0 0 0 0 -0 -1 -1 -1 -1 -1 -1 -1 -1 -0 -0 0 1 1 1 1 1 2 2 2 2 2 2 2 2 2 2 2 2 2 2 3 3 3 4 4 5 5 5 6
-1 -1 -1 -1 -1 -1 -1 -1 -1 -1 -1 -1 -1 -1 -1 -1 -1 -1 -1 -1 -1 -1 -0 -0 -0 -0 0 0 0 -0 -0 -1 -1 -1 -1 -1 -1 -1 -1 -1 -1 -0 0 0 1 1 1 1 1 1 2 2 1 1 1 1 2 2 2 2 2 3 3 3 4 4 4 5 5
-1 -1 -1 -1 -2 -2 -1 -1 -1 -1 -1 -1 -1 -1 -1 -1 -1 -1 -1 -1 -1 -1 -1 -1 -1 -2 -2 -1 -1 -1 -1 -1 -1 -1 -1 -1 -1 -1 -1 -1 -1 -1 -1 -0 -0 0 0 1 1 1 1 1 1 1 1 1 1 1 2 2 2 2 3 3 3 3 4 4 4
-2 -2 -2 -2 -2 -2 -2 -2 -1 -1 -1 -1 -1 -1 -1 -1 -1 -1 -1 -1 -1 -1 -1 -1 -2 -2 -2 -2 -2 -2 -2 -2 -2 -2 -2 -2 -2 -1 -1 -1 -1 -1 -0 -0 -0 -0 -0 0 0 1 1 1 1 1 1 1 1 1 2 2 2 2 2 3 3 3 4 4 4
-2 -2 -2 -2 -3 -3 -3 -2 -2 -2 -2 -2 -2 -2 -2 -2 -2 -2 -2 -2 -2 -1 -1 -1 -1 -1 -1 -1 -1 -2 -2 -2 -2 -2 -2 -2 -2 -2 -2 -1 -1 -0 -0 -1 -1 -0 -0 -0 0 0 1 1 1 1 1 1 1 1 2 2 2 2 2 2 3 3 3 4 4
-3 -3 -3 -3 -3 -3 -3 -3 -3 -3 -3 -3 -3 -3 -3 -3 -3 -3 -3 -3 -3 -2 -2 -2 -2 -2 -1 -1 -1 -1 -2 -2 -2 -2 -2 -2 -3 -3 -2 -2 -1 -0 -0 -1 -1 -1 -0 -0 -0 0 0 0 1 1 1 1 1 2 2 2 2 2 2 2 2 3 3 3 4
-3 -3 -4 -3 -4 -4 -4 -4 -4 -4 -4 -4 -4 -4 -4 -4 -4 -4 -4 -4 -4 -4 -4 -4 -3 -3 -3 -3 -2 -2 -2 -2 -2 -2 -2 -2 -2 -2 -2 -2 -1 -1 -1 -1 -1 -1 -1 -0 -0 0 0 0 0 1 1 1 1 2 2 2 2 2 2 2 2 3 3 3 3
-4 -4 -4 -4 -4 -4 -4 -4 -4 -4 -4 -4 -4 -4 -4 -4 -4 -4 -4 -4 -4 -4 -4 -4 -4 -4 -4 -4 -4 -4 -3 -3 -3 -3 -2 -2 -2 -2 -2 -2 -2 -1 -1 -1 -1 -1 -1 -0 -0 0 0 0 0 1 1 1 1 2 2 2 2 2 2 2 2 2 3 3 3
-4 -4 -4 -4 -4 -4 -4 -4 -4 -4 -5 -5 -5 -5 -5 -5 -5 -5 -5 -5 -5 -5 -5 -5 -5 -5 -5 -5 -4 -4 -4 -4 -4 -4 -3 -3 -3 -3 -3 -3 -2 -1 -1 -1 -1 -1 -1 -1 -0 -0 0 0 0 0 1 1 1 1 2 2 2 2 2 2 2 2 2 3 3
-4 -4 -4 -4 -4 -4 -4 -4 -4 -4 -4 -4 -5 -5 -5 -5 -5 -5 -5 -5 -5 -5 -5 -5 -5 -5 -5 -5 -4 -4 -4 -4 -4 -4 -4 -4 -3 -3 -3 -3 -3 -2 -2 -1 -1 -1 -1 -1 -0 -0 0 0 0 0 1 1 1 1 1 2 2 2 2 2 2 2 2 2 3
-3 -3 -3 -3 -3 -3 -3 -3 -3 -3 -3 -4 -4 -4 -4 -4 -4 -4 -4 -4 -4 -4 -5 -5 -5 -5 -5 -5 -5 -4 -4 -4 -4 -4 -4 -4 -3 -3 -3 -3 -3 -3 -2 -2 -2 -1 -1 -1 -0 -0 0 0 0 0 1 1 1 1 1 2 2 2 2 2 2 2 2 2 2
Height
700 701 703 704 704 705 706 707 707 707 707 706 706 706 706 707 709 709 710 710 710 711 712 713 714 716 717 719 721 722 724 726 727 728 729 730 731 732 734 736 738 740 741 743 744 745 747 748 749 749 750 751 752 754 755 756 757 758 759 760 761 762 763 764 765 766 769 771 774
699 701 703 704 704 705 705 706 706 706 706 706 705 705 706 707 708 709 709 709 709 710 711 712 713 715 716 718 719 721 723 725 726 728 729 730 731 732 734 735 737 739 740 741 743 744 745 746 747 748 749 750 751 753 754 755 756 757 758 759 760 761 762 763 764 766 769 771 773
699 701 702 703 704 705 706 706 706 705 705 705 705 705 706 707 708 708 709 709 709 710 711 712 713 714 716 717 719 720 722 724 725 727 728 729 730 731 733 735 736 738 739 740 741 742 743 744 745 746 748 749 750 752 753 754 755 756 757 758 759 760 761 762 764 766 769 771 772
700 701 702 703 704 705 706 705 704 704 704 705 705 706 707 707 707 708 708 709 709 709 710 711 713 714 715 716 718 719 721 722 724 726 727 728 730 731 732 734 735 736 738 739 739 740 741 742 743 744 746 747 749 750 751 752 754 755 756 756 758 759 760 761 763 765 767 769 769
701 703 704 705 705 705 705 704 704 704 704 704 705 706 707 707 707 707 708 708 709 709 710 711 712 713 715 716 717 718 719 721 722 724 725 727 728 730 731 732 733 734 736 737 737 738 739 740 741 743 744 745 747 748 749 750 752 753 754 755 756 757 758 759 761 763 765 766 766
704 705 706 706 706 706 705 705 704 704 704 705 705 706 706 706 706 707 707 708 709 709 710 711 712 713 714 715 716 717 718 719 721 722 724 725 727 728 730 731 732 733 734 735 736 737 737 739 740 741 742 743 744 745 747 748 750 751 752 753 754 754 756 757 758 760 761 762 763
706 707 708 708 707 707 706 706 705 705 705 705 706 707 707 707 707 707 708 708 709 710 710 711 712 713 714 715 716 716 717 718 719 721 722 724 726 727 729 730 731 732 733 734 734 735 736 737 739 739 740 742 743 744 745 747 748 749 750 751 751 752 753 754 755 756 757 758 759
708 709 710 710 709 708 707 706 706 706 706 707 708 709 709 709 709 709 709 709 710 710 711 712 713 713 714 715 716 717 717 718 719 720 722 723 724 726 728 729 730 731 732 733 734 735 736 737 737 738 739 740 742 743 744 746 746 747 748 749 749 750 751 752 753 754 754 755 755
710 711 711 711 711 709 708 707 706 707 708 709 710 710 711 711 711 711 711 712 712 712 712 713 714 714 715 716 716 717 718 718 719 720 722 723 724 725 727 728 729 730 731 732 734 734 735 736 737 738 739 739 741 742 743 744 745 746 746 747 748 748 749 750 751 751 752 752 753
714 713 713 712 711 710 708 707 707 708 709 711 712 712 712 712 713 713 714 714 714 714 713 714 714 715 716 717 717 718 719 719 720 721 722 722 724 725 726 727 728 729 730 731 733 734 734 735 736 737 738 739 740 741 742 743 744 745 746 746 746 747 747 747 748 749 750 750 751
716 715 714 714 712 710 709 708 709 711 712 713 713 713 713 713 714 715 715 716 715 716 716 716 715 716 716 717 718 719 719 720 721 721 722 722 723 724 725 726 727 728 729 731 732 733 734 734 735 736 737 738 739 740 741 742 744 744 744 744 745 745 745 745 746 746 747 748 749
718 717 716 715 713 711 710 711 712 714 715 715 715 715 714 714 715 716 716 716 717 717 718 718 717 717 717 717 717 718 718 719 720 721 722 723 724 724 725 726 727 728 729 730 731 732 733 733 733 734 735 737 738 739 740 741 742 742 743 743 743 743 742 743 743 744 745 746 747
720 719 717 716 714 713 713 714 715 716 716 716 716 716 716 716 716 717 718 719 719 720 720 719 719 718 718 719 719 719 719 719 720 721 722 723 724 725 725 726 727 728 729 729 730 731 731 731 732 733 734 735 736 737 738 739 739 740 740 741 741 741 741 742 742 742 743 744 745
722 721 719 718 717 716 716 717 718 718 718 718 718 718 718 718 719 720 721 721 722 722 722 721 721 721 721 721 721 721 721 721 721 722 723 723 724 724 725 726 727 727 728 728 729 729 729 730 731 732 733 734 734 735 736 736 737 737 738 739 739 740 741 741 741 741 741 742 743
725 724 722 721 720 719 720 721 721 721 721 721 721 721 721 722 722 723 724 724 724 724 724 724 724 723 723 723 722 722 722 722 723 723 724 724 724 724 725 725 726 727 727 728 729 729 729 730 731 732 732 733 733 734 734 735 735 736 736 737 738 739 739 740 740 740 740 740 741
728 726 725 724 723 724 725 726 726 726 725 725 725 725 725 725 726 726 726 726 726 726 726 726 726 725 725 724 724 724 724 724 724 724 725 725 725 726 726 726 726 727 728 729 729 730 731 731 731 732 732 732 733 733 734 734 734 735 735 736 737 737 738 738 739 739 739 739 739
731 730 729 728 728 729 730 730 730 730 730 729 729 729 729 729 728 728 728 728 728 728 728 728 727 727 726 726 726 725 725 725 725 726 726 726 727 727 727 727 728 728 729 729 730 730 731 732 732 732 732 732 732 733 733 733 734 734 735 735 736 736 736 737 737 737 737 737 738
735 734 733 732 732 733 734 734 734 734 733 733 732 732 731 731 731 731 730 730 730 730 730 730 729 729 728 728 727 727 727 727 727 727 728 728 728 728 728 728 729 729 729 730 730 730 730 731 731 732 732 732 732 732 733 733 733 733 734 734 734 734 735 735 735 735 736 736 736
739 738 737 736 736 736 736 736 736 736 736 735 734 734 734 733 733 732 732 731 731 731 731 731 731 731 730 730 729 729 729 729 729 729 729 729 729 729 729 729 729 730 730 730 730 730 730 730 730 730 731 731 732 732 732 733 733 733 733 733 733 733 733 733 733 734 734 734 734
740 739 739 738 738 738 738 738 738 738 737 737 736 736 735 735 734 734 733 733 733 733 733 732 732 732 732 731 731 731 730 730 730 730 730 730 730 730 730 730 730 730 731 731 731 731 731 731 731 730 730 730 731 731 731 732 732 732 732 732 732 731 731 732 732 732 732 732 733
742 741 741 740 740 740 740 740 740 740 739 738 738 737 737 736 736 735 735 735 735 735 734 734 734 734 733 732 732 732 732 732 732 731 731 731 731 731 731 731 731 731 731 731 731 731 731 732 731 731 731 731 731 731 731 731 731 731 731 731 731 731 730 730 730 730 731 731 731
744 744 743 743 742 742 742 742 741 741 740 740 739 739 738 738 737 737 737 737 737 736 736 736 735 735 735 734 734 733 733 733 733 732 732 731 731 731 731 731 731 731 732 732 732 732 732 732 732 732 732 731 731 731 731 731 730 730 730 730 730 730 730 729 729 729 729 729 729
747 746 745 745 745 744 744 743 743 742 741 741 740 740 740 739 739 739 739 739 738 738 737 737 737 737 736 736 735 735 734 734 733 733 732 732 732 732 732 732 732 732 732 732 732 732 733 733 733 733 732 732 732 731 731 731 730 730 729 729 729 728 729 729 728 728 727 727 727
749 748 747 747 746 746 745 744 744 743 743 742 742 741 741 741 740 740 740 739 739 739 739 739 738 738 738 737 736 736 735 735 734 734 733 733 733 733 732 732 732 732 733 733 733 734 734 734 734 733 733 733 733 732 732 731 731 730 729 729 728 727 727 727 727 727 726 726 725
751 750 749 748 748 747 746 746 745 745 744 744 744 743 743 742 742 741 741 741 740 740 740 740 739 739 738 738 737 737 736 736 735 735 735 734 734 734 734 733 733 734 734 734 734 734 735 735 735 735 734 734 733 733 732 731 731 730 729 728 728 727 726 725 725 724 724 724 724
753 752 751 750 749 749 748 747 747 746 746 746 745 744 744 744 744 743 743 742 742 742 741 741 740 739 739 738 738 737 737 736 736 736 736 735 735 735 735 735 735 735 735 735 735 735 735 736 736 736 735 734 734 733 732 731 730 729 729 728 727 726 726 725 724 723 723 723 723
754 753 753 752 751 750 750 749 749 748 748 747 746 746 746 745 745 744 744 743 743 743 742 741 741 741 740 739 738 738 737 737 737 736 736 736 736 736 736 736 736 736 736 736 736 736 736 736 736 736 735 735 734 733 732 730 729 729 728 727 726 726 725 724 723 722 721 721 721
755 755 754 753 752 752 752 751 751 750 749 749 749 748 748 747 746 745 745 744 744 743 742 742 742 741 740 740 739 739 739 738 738 737 737 737 736 736 736 736 736 736 736 736 736 736 736 736 736 736 735 734 733 732 731 730 729 728 727 726 726 725 724 723 722 721 721 720 720
756 756 755 754 754 753 753 752 752 752 752 751 751 750 749 748 747 746 746 745 744 744 743 743 742 741 741 740 740 739 739 739 739 738 738 737 737 737 736 736 736 736 736 736 736 736 736 735 735 735 734 734 733 732 731 729 729 727 726 725 724 724 723 722 721 720 720 719 719
757 757 756 755 755 754 754 754 754 754 753 753 752 751 750 749 748 747 746 746 745 745 745 744 743 742 741 741 740 739 739 739 739 738 738 738 737 737 736 736 736 735 735 735 735 735 735 734 734 734 733 733 732 731 730 729 728 726 725 724 723 722 721 721 720 719 719 718 718
758 758 757 756 756 756 755 755 755 755 754 753 753 752 751 750 749 749 748 748 747 747 746 745 744 743 742 741 741 740 739 739 739 738 738 738 737 737 736 736 735 735 735 735 735 734 734 733 733 732 732 731 731 730 729 727 726 725 724 723 722 721 720 719 719 718 718 717 717
760 759 758 758 757 757 757 756 756 755 754 754 753 752 751 751 751 750 750 749 748 747 746 745 744 743 742 741 741 740 740 740 739 739 738 738 737 737 736 736 735 735 734 734 734 734 733 733 732 731 731 730 729 728 727 726 725 723 722 721 720 719 719 718 717 717 716 716 716
761 760 760 759 759 758 758 757 756 756 755 754 753 753 752 751 751 750 750 749 748 747 746 746 745 744 743 742 742 741 741 741 740 740 739 739 738 737 736 735 734 734 734 734 734 733 733 732 731 730 730 729 728 727 725 724 723 722 721 719 719 718 717 717 716 716 715 715 715
763 762 761 761 760 760 759 758 758 757 756 755 754 754 753 752 751 750 750 749 749 748 747 747 746 745 745 744 744 743 742 742 741 741 740 739 738 737 736 735 734 734 734 733 733 732 732 731 730 729 729 728 726 725 724 723 722 720 719 718 717 716 716 716 715 715 714 714 713
765 764 763 763 762 761 761 760 759 758 757 756 756 755 754 754 753 752 751 750 750 749 748 747 747 746 746 745 744 744 743 743 742 741 741 740 739 738 736 735 734 734 733 733 732 731 731 730 729 728 727 726 725 724 723 722 720 719 718 717 716 716 715 714 714 714 713 713 712
767 766 766 765 764 763 763 762 761 760 759 758 757 756 756 755 754 754 753 752 751 750 749 748 748 747 746 745 745 744 744 743 742 741 741 740 739 738 736 735 734 733 733 732 731 731 730 729 728 727 726 725 724 723 722 721 719 718 717 716 716 715 714 714 713 712 712 711 711
769 768 767 766 766 765 764 763 762 761 760 760 759 758 757 756 756 755 754 753 752 751 750 750 749 748 747 747 746 745 745 744 743 741 740 740 739 737 736 735 733 733 732 732 731 730 729 729 728 727 726 724 723 722 721 719 718 717 716 716 715 714 713 713 712 711 711 710 710
770 769 768 767 767 766 765 764 763 762 761 761 760 759 758 757 756 755 755 754 753 752 751 750 750 749 748 748 747 746 745 744 743 742 741 739 738 737 736 734 733 732 731 731 730 730 729 728 727 726 725 724 723 721 720 719 718 716 715 714 714 713 712 712 711 710 709 709 709
770 770 769 768 767 766 765 764 763 763 762 761 760 759 758 757 756 756 755 754 754 753 752 751 750 749 748 747 746 745 744 744 743 742 741 739 738 737 736 735 733 732 731 730 729 729 728 727 726 726 725 724 722 721 720 719 717 716 715 714 713 711 711 710 710 709 708 708 707
770 769 769 767 766 765 764 764 763 762 761 760 759 758 757 757 756 755 755 754 753 752 751 750 749 748 747 746 745 744 743 742 742 741 740 739 738 737 736 735 733 732 731 730 729 728 727 726 726 725 724 723 722 721 719 718 716 715 714 713 712 710 709 709 708 708 707 706 706
771 770 769 768 766 765 764 763 762 761 761 760 759 758 757 756 755 754 753 752 751 750 749 748 747 746 745 744 743 742 741 740 740 739 739 738 737 736 735 734 732 731 730 730 729 728 727 726 725 724 723 722 721 720 719 718 716 714 713 712 711 710 708 707 706 706 705 704 704
Wind_Speed
9 11 12 13 14 16 16 17 17 16 15 13 13 14 15 16 16 16 17 18 19 20 20 20 20 19 18 16 14 12 11 13 17 20 23 26 27 28 28 29 31 32 33 33 31 29 27 27 26 26 25 25 25 25 25 25 25 25 25 25 26 27 28 28 29 29 30 31 33
8 6 7 10 12 15 16 17 17 16 14 12 12 13 14 15 14 13 13 15 17 18 19 19 20 21 21 20 19 17 14 12 13 15 18 21 24 27 28 29 30 31 31 32 31 30 30 30 29 27 25 24 23 22 23 23 22 22 21 22 23 24 26 28 29 31 32 33 35
21 17 12 7 1 3 7 8 9 9 9 9 9 11 13 15 16 15 14 13 13 15 17 19 20 21 21 21 20 19 17 15 14 15 17 19 22 24 27 29 29 30 31 31 31 32 32 32 31 29 27 25 24 24 24 24 23 23 22 22 22 22 23 25 27 29 31 33 34
30 28 26 24 21 18 16 14 11 9 6 4 1 2 7 11 15 17 18 17 15 14 15 17 19 20 21 21 20 19 18 18 18 18 19 20 21 23 25 27 28 29 30 30 30 31 31 31 30 29 29 28 28 28 28 28 27 26 26 25 24 24 24 25 27 28 30 31 31
33 32 31 30 29 28 28 28 27 27 25 23 21 18 14 9 4 5 12 17 18 17 17 17 19 20 21 21 21 21 21 21 21 21 21 20 20 21 22 24 26 27 28 28 28 28 28 28 28 28 28 29 30 31 31 31 30 30 29 28 28 27 27 27 28 29 30 30 30
33 32 32 31 31 31 30 31 31 31 32 31 31 30 29 27 23 17 8 3 12 18 19 19 19 20 21 22 22 23 24 24 24 23 22 22 21 20 20 21 22 24 25 25 26 26 26 26 26 27 27 28 30 31 32 32 32 32 31 31 31 31 31 31 31 32 32 32 31
33 33 32 32 32 32 32 32 32 33 33 34 33 32 31 31 30 28 24 16 6 6 15 20 21 21 20 20 21 22 24 25 25 25 24 23 21 20 19 18 18 19 20 21 23 24 25 26 26 26 26 27 27 28 29 30 31 31 31 32 33 33 34 34 34 34 33 33 33
35 34 32 32 32 33 33 34 34 34 34 34 34 33 33 33 32 32 30 28 23 13 2 10 16 18 18 16 15 16 19 22 23 24 23 23 22 21 19 18 17 16 16 17 19 21 23 25 26 26 26 25 25 25 26 27 28 29 29 30 31 32 33 32 31 31 31 32 32
35 34 33 33 33 34 35 36 36 36 35 34 34 33 33 33 32 32 32 31 30 27 20 11 3 6 12 15 14 13 13 15 18 19 19 20 21 20 19 18 17 16 15 15 16 18 19 21 22 22 23 23 23 23 23 23 24 25 26 26 27 28 28 27 27 26 26 27 27
35 34 34 34 34 35 36 37 37 36 35 34 34 33 33 32 32 31 31 30 30 30 29 26 20 14 7 1 4 7 9 10 12 13 13 16 18 18 17 16 16 15 14 14 15 16 16 17 18 19 19 20 21 21 22 23 25 25 26 26 26 27 28 28 28 27 27 27 26
34 34 33 33 34 35 37 38 38 36 35 34 34 34 33 33 32 31 30 29 30 30 30 28 27 25 22 18 13 8 3 1 4 6 9 11 13 15 15 16 16 16 16 17 18 19 18 17 17 17 18 19 20 21 22 23 24 25 25 25 26 26 28 29 31 32 33 33 32
34 33 33 34 35 36 38 38 37 36 35 34 34 34 34 34 32 31 30 30 30 30 29 28 27 27 26 24 22 18 14 10 6 3 4 7 10 13 15 17 18 18 19 21 21 20 18 17 16 17 19 20 21 21 21 21 21 20 20 19 20 21 23 25 28 31 34 35 34
34 35 35 36 37 38 38 37 36 35 35 35 35 35 34 33 31 30 29 30 30 29 28 27 26 26 26 24 23 21 19 17 14 11 7 4 4 7 11 14 16 18 19 19 18 17 16 15 16 18 20 21 21 21 20 19 19 18 17 15 14 15 16 19 21 24 27 29 30
36 37 37 38 38 38 37 35 35 34 35 35 35 34 33 32 31 29 29 29 29 28 27 26 26 25 25 24 23 22 20 19 18 17 16 14 11 8 5 5 8 11 14 14 14 14 14 15 17 19 20 20 20 19 18 18 18 18 18 17 15 15 15 16 16 17 18 21 23
36 36 37 38 37 37 35 34 33 33 33 33 33 32 31 30 29 29 28 28 28 28 27 27 26 25 23 23 22 21 20 19 19 18 18 17 17 16 14 12 9 6 5 7 8 10 11 13 15 16 16 16 15 15 15 16 16 17 18 18 19 19 19 18 17 16 16 16 17
34 35 36 36 36 35 33 32 31 31 31 31 30 29 29 28 28 28 27 28 27 27 27 27 26 25 24 23 22 21 21 20 20 19 19 18 17 16 15 15 14 14 12 10 7 5 6 9 10 11 11 11 11 11 12 14 14 15 15 16 17 19 20 20 20 19 17 16 16
33 33 33 34 34 33 31 30 29 28 28 28 28 27 27 26 26 26 26 26 26 26 26 26 26 26 26 25 23 22 22 22 22 21 21 20 19 17 16 15 14 14 15 15 13 10 6 4 6 8 9 10 10 11 12 13 14 14 14 14 15 16 17 18 19 19 18 18 18
31 31 32 32 31 31 29 28 28 27 27 27 27 26 26 25 25 25 25 25 25 26 26 25 25 26 26 26 25 24 24 24 23 23 22 21 20 19 18 16 15 14 15 15 13 12 11 9 7 5 6 8 10 12 13 14 15 15 15 15 15 16 16 17 18 18 19 20 21
29 30 30 30 30 29 29 28 28 27 27 27 27 27 26 26 26 26 26 25 25 25 25 25 25 25 25 26 25 25 24 24 23 23 22 21 21 20 19 18 16 15 15 14 13 11 10 10 9 8 7 6 7 8 11 13 15 16 17 17 17 17 17 18 18 19 20 21 22
29 29 29 29 29 29 29 29 28 28 28 28 28 28 28 27 27 27 27 26 25 24 24 24 25 25 25 25 25 25 24 23 23 22 21 20 20 20 19 18 17 16 15 14 13 13 12 11 10 9 8 8 7 6 6 8 11 14 16 18 19 19 19 19 20 20 21 22 22
29 29 29 29 29 29 29 29 29 29 29 29 29 29 28 28 28 28 27 26 25 25 24 24 24 24 24 24 24 24 23 23 22 22 21 20 20 19 19 18 17 16 16 15 15 15 15 15 14 14 12 11 10 8 7 6 7 8 11 13 16 19 20 21 22 22 22 22 23
29 29 29 29 29 29 29 29 29 29 30 30 29 29 29 29 28 28 27 27 26 26 25 24 24 23 23 24 24 23 22 22 22 22 21 20 20 19 18 17 17 17 17 17 18 18 17 17 17 17 16 15 14 13 11 10 9 8 8 9 11 13 16 19 22 23 24 24 24
29 29 29 29 30 29 29 30 30 30 31 31 30 30 29 29 28 27 27 27 27 27 26 25 24 24 23 23 23 23 22 22 22 22 22 21 20 19 18 18 17 17 18 19 19 20 20 19 19 19 18 18 17 17 16 15 14 12 11 10 10 10 11 14 17 20 23 24 25
30 30 30 30 30 30 30 30 31 31 31 31 30 30 29 29 28 28 27 27 27 27 27 26 25 24 24 24 24 23 23 22 23 23 22 22 21 20 20 19 18 18 18 18 19 19 20 20 20 20 20 19 18 18 17 16 16 15 15 14 13 13 12 12 12 14 17 20 22
29 30 30 31 31 31 31 32 32 32 31 30 30 29 29 28 28 28 27 27 27 27 26 26 25 25 25 25 25 24 24 23 23 23 23 22 21 21 20 19 18 18 17 18 18 18 18 18 18 19 19 20 19 18 17 17 16 16 16 16 16 16 15 15 14 14 14 16 18
29 30 30 31 31 31 32 32 31 31 31 30 30 29 29 28 28 27 27 27 27 26 26 26 25 25 25 25 25 25 25 24 23 23 22 22 21 20 19 18 17 17 17 17 17 17 17 17 17 17 18 19 19 19 18 18 17 16 16 16 15 16 16 16 16 16 15 15 15
29 29 30 30 31 31 31 31 31 31 31 31 30 30 29 28 28 27 27 27 26 26 25 25 25 24 24 24 25 25 25 24 24 23 23 22 22 21 20 18 17 17 17 16 17 17 17 17 17 17 17 18 19 19 19 19 18 17 17 16 15 15 15 16 17 17 17 17 16
30 29 30 30 30 31 31 31 31 31 30 30 30 29 28 28 28 28 28 27 27 26 26 25 25 24 24 24 24 24 24 24 23 23 22 22 22 22 21 20 19 18 17 16 16 17 17 17 17 17 17 18 18 19 18 18 17 17 17 17 16 16 16 17 17 18 19 19 19
30 29 30 30 30 30 30 30 30 30 29 29 29 28 28 29 29 29 29 28 28 28 27 26 25 25 25 25 24 24 24 23 22 22 22 22 22 22 22 22 21 20 18 18 17 18 18 18 18 18 18 18 18 19 18 17 16 16 17 17 16 16 17 17 18 18 19 20 20
30 29 29 29 30 30 30 30 29 29 28 28 28 28 29 29 29 29 28 28 28 27 27 26 26 26 26 26 25 25 24 23 23 22 22 22 22 22 22 22 21 21 20 19 19 19 19 19 19 19 19 19 19 19 18 18 17 17 17 17 17 17 17 17 18 18 19 19 20
29 29 29 29 29 29 29 29 29 28 28 28 28 29 29 28 28 28 27 27 27 26 26 26 26 26 26 26 26 25 25 25 24 23 23 23 22 22 22 22 21 21 21 20 20 21 21 21 21 20 20 20 20 20 19 18 18 18 18 18 18 17 17 17 17 18 18 19 20
28 28 29 29 29 28 28 28 28 28 28 28 28 28 28 28 27 27 27 26 26 26 27 27 27 27 26 26 26 26 26 25 25 24 24 23 23 23 23 22 22 22 21 21 21 21 21 22 21 21 21 21 21 20 20 19 19 19 19 18 18 18 18 17 18 18 19 19 19
27 27 27 28 27 27 27 27 27 28 27 28 28 28 28 27 27 27 27 26 26 27 27 27 26 26 26 26 25 25 25 25 24 24 24 24 24 24 24 23 23 22 22 22 22 22 22 22 22 22 22 22 22 21 21 20 20 20 19 19 19 19 19 18 18 19 19 19 19
26 26 26 26 25 25 26 26 26 26 27 27 27 27 27 27 27 27 27 26 26 26 26 26 25 25 25 24 24 24 24 24 23 23 23 23 23 24 25 25 24 24 23 23 23 22 22 22 22 22 22 22 22 21 21 21 20 20 20 20 20 20 20 19 19 19 19 19 19
23 24 24 23 23 23 23 24 25 25 25 26 26 26 26 26 25 25 25 25 25 25 25 25 24 24 24 24 24 23 23 24 23 23 22 22 22 23 24 25 25 25 24 24 23 23 23 23 23 23 23 22 22 21 21 21 20 20 20 20 20 20 20 19 19 19 19 19 19
21 21 21 21 21 21 21 22 22 23 24 24 24 24 24 23 23 23 23 23 24 24 25 24 24 24 24 24 24 23 23 23 23 23 22 22 22 22 24 25 25 25 25 24 23 23 23 23 23 23 23 23 22 22 21 21 21 20 19 20 20 19 19 20 20 20 19 19 19
19 19 19 19 19 19 19 20 21 21 22 22 21 21 21 21 21 20 21 21 22 22 22 22 22 23 23 23 22 22 22 21 22 22 22 22 22 23 24 25 25 25 25 24 23 23 23 23 23 23 23 23 23 22 22 22 21 20 20 20 20 19 19 19 20 20 20 19 19
18 18 18 18 18 18 19 19 20 21 21 21 20 20 20 20 19 19 19 19 19 20 20 20 20 20 20 20 20 20 20 19 19 20 21 21 22 22 23 24 25 25 24 24 23 23 23 23 23 23 22 22 22 22 22 22 21 21 21 21 20 20 20 19 19 19 19 19 20
18 19 19 19 19 19 20 20 21 21 21 21 21 21 21 20 19 19 19 19 19 19 18 18 18 19 19 18 18 18 18 17 17 17 18 19 20 20 20 22 23 23 23 23 23 23 23 23 23 23 22 22 21 21 21 21 22 22 21 21 21 21 21 20 19 19 19 20 20
19 20 20 20 20 21 21 22 23 23 23 23 23 23 22 21 21 21 21 21 21 20 20 19 20 20 20 19 18 18 17 17 16 16 17 17 18 18 18 19 20 21 22 22 22 22 23 23 23 23 22 22 21 21 21 21 21 21 21 21 21 21 21 21 20 20 20 21 21
20 20 21 21 21 22 22 23 24 24 24 24 25 24 24 24 24 24 24 24 24 24 24 23 24 24 24 22 21 20 19 19 18 18 18 18 18 17 17 17 18 19 20 20 20 20 21 22 23 23 22 22 22 22 22 21 21 21 21 21 21 21 22 22 22 21 21 21 21
Wind_Direction
192 215 228 235 240 243 245 246 244 242 239 233 224 215 210 206 207 209 213 215 216 216 216 216 216 217 216 215 213 214 220 226 227 225 220 215 211 207 204 204 204 205 206 207 209 212 215 217 217 216 215 213 214 215 216 218 220 224 229 236 240 241 240 239 239 240 244 247 249
111 157 208 231 242 245 245 243 239 236 232 229 222 215 209 205 205 206 208 209 212 214 215 216 216 216 215 215 214 213 215 222 231 235 232 226 220 217 215 215 215 215 215 216 218 221 224 224 224 222 220 218 217 217 218 218 219 223 227 232 235 235 234 233 234 235 238 241 242
74 76 78 77 87 238 237 232 226 223 224 227 227 223 219 217 216 217 218 217 215 214 215 216 218 218 218 218 217 216 215 219 227 234 236 234 229 224 221 220 221 222 222 221 221 222 223 224 223 223 223 224 225 226 226 225 224 225 227 229 229 228 227 227 229 231 234 236 237
67 66 65 64 64 63 62 62 65 68 67 59 58 229 229 230 230 229 229 229 227 223 220 219 222 223 224 223 221 219 218 218 221 224 227 227 226 223 220 217 216 217 218 218 218 220 222 223 223 224 225 226 228 230 230 229 228 227 227 227 226 225 223 224 226 229 232 235 237
62 63 63 64 64 63 62 62 62 62 63 63 61 58 53 43 10 256 238 233 232 230 228 226 224 224 224 223 220 218 215 213 211 210 210 211 213 214 215 214 214 215 216 217 218 220 223 225 226 226 227 228 229 229 230 229 228 227 226 224 223 222 221 222 225 228 232 236 239
58 59 60 61 63 63 63 62 62 62 63 63 62 58 54 50 47 42 33 269 235 230 227 222 216 210 207 206 205 204 203 202 201 200 199 198 199 202 206 211 215 218 219 221 223 224 226 227 227 227 227 227 228 228 229 229 228 227 226 224 222 222 221 223 225 229 232 236 239
56 56 56 56 58 60 61 61 61 61 61 60 59 57 55 53 51 48 45 42 31 231 218 209 200 192 186 183 182 181 183 187 190 193 193 193 192 193 196 201 208 215 220 223 225 226 227 227 226 225 224 223 223 224 225 225 224 223 222 222 222 222 223 224 226 229 231 233 235
56 55 53 53 54 56 58 59 59 58 57 56 55 54 55 54 53 51 49 47 45 46 98 197 200 199 198 196 192 183 177 177 180 182 183 185 186 187 187 188 191 198 207 214 218 221 222 222 222 220 219 217 217 217 219 219 218 217 216 216 217 219 220 221 224 225 225 226 228
53 52 52 52 53 54 55 57 57 56 54 52 51 52 53 53 52 50 48 46 47 50 53 58 94 211 224 229 233 226 209 195 194 187 179 177 178 180 181 181 182 186 194 202 208 212 215 217 219 219 220 220 220 221 222 223 223 222 221 220 220 220 221 223 224 223 222 222 222
48 48 49 49 50 52 54 55 55 54 52 49 48 49 50 51 50 48 46 46 49 51 52 53 55 58 60 77 239 234 227 218 212 205 197 188 184 185 188 191 193 197 203 211 219 224 227 229 232 233 234 234 235 235 236 238 239 239 237 236 235 235 235 235 236 237 237 237 235
45 46 46 46 48 50 53 53 52 51 49 47 46 46 47 47 47 46 46 47 48 48 49 52 55 57 57 57 56 58 66 201 224 228 224 215 209 212 219 225 227 229 233 239 243 244 245 245 247 249 249 249 248 247 247 247 246 246 245 245 246 245 245 244 244 245 247 247 247
43 44 45 46 48 50 51 50 49 47 46 45 44 44 44 44 44 44 44 45 45 44 44 47 50 53 55 55 55 56 55 51 40 358 279 257 248 247 248 248 248 248 249 250 249 248 248 249 251 254 256 257 255 253 249 247 245 244 245 247 249 249 249 248 247 246 246 246 246
42 43 44 46 48 49 49 48 46 44 43 43 42 42 42 42 41 41 41 41 41 41 41 43 46 48 49 51 54 56 57 57 55 50 36 2 300 273 263 257 254 253 253 252 251 250 249 251 252 254 256 257 256 253 250 248 248 248 248 249 249 249 249 249 247 246 245 245 245
42 43 45 46 47 48 47 45 43 42 41 41 41 41 41 41 40 40 39 39 40 40 40 41 42 44 45 47 49 52 56 58 60 59 58 54 49 37 6 304 273 264 261 260 258 256 255 254 254 255 255 254 253 252 253 254 256 257 257 255 252 250 250 251 252 252 252 251 250
41 42 45 47 47 46 45 43 42 41 41 40 40 40 40 40 40 40 39 39 39 39 39 40 40 41 42 43 43 45 48 51 52 53 53 53 53 52 50 45 35 13 334 299 278 265 255 250 249 249 249 249 249 250 252 254 256 257 257 256 254 253 253 255 258 261 263 261 258
39 40 43 45 45 45 43 42 41 40 40 40 40 41 40 40 40 41 40 39 38 38 39 39 39 39 39 39 39 39 40 41 41 41 41 41 41 43 45 47 46 44 38 27 5 314 263 243 239 239 242 245 249 252 252 250 248 247 248 250 252 253 254 256 258 260 261 260 258
39 39 41 43 44 44 43 42 41 40 40 40 41 41 40 40 40 41 41 40 39 39 38 38 38 38 38 38 37 36 35 35 35 34 32 30 29 30 32 36 40 43 42 39 34 27 9 309 266 256 254 258 263 264 261 255 248 244 242 243 245 248 250 252 253 254 254 254 254
40 40 41 42 43 43 42 42 41 40 40 40 40 40 40 40 39 40 41 42 41 40 39 37 37 37 37 37 37 36 35 34 34 32 30 28 26 25 26 27 31 35 36 34 33 33 31 23 4 329 298 285 280 277 273 267 261 257 254 251 249 247 247 247 248 249 250 251 252
40 40 40 41 42 42 42 41 40 40 40 40 40 40 40 40 39 40 40 41 41 41 40 37 36 36 36 36 36 36 35 34 33 32 30 28 26 25 26 26 28 30 29 24 21 21 22 23 21 17 6 345 318 300 288 280 275 270 268 265 262 258 253 250 248 248 248 249 251
39 39 39 39 40 41 41 40 40 40 40 40 40 40 39 39 39 39 38 38 38 39 39 37 35 33 32 33 33 33 32 31 30 29 28 27 26 26 26 26 27 26 23 16 11 8 7 6 6 7 7 4 355 339 319 302 290 282 276 271 268 264 261 258 254 252 251 251 252
38 38 38 39 39 40 40 40 40 40 40 40 39 39 39 38 38 38 37 36 36 37 37 36 34 31 29 29 29 29 28 28 27 26 26 25 24 24 24 24 25 23 18 13 9 6 3 1 358 356 353 350 346 341 335 325 313 301 291 282 275 269 265 262 259 257 256 256 257
38 38 39 39 40 40 40 40 39 39 39 39 38 38 37 37 37 36 36 35 35 35 35 34 33 30 27 26 26 25 23 23 23 23 23 22 22 21 21 21 21 19 16 14 12 9 6 2 359 355 350 346 340 336 332 327 320 313 308 301 292 284 276 269 264 261 259 259 260
38 39 39 40 40 40 40 39 39 39 38 37 37 36 35 35 34 34 34 34 33 33 33 32 31 29 27 25 24 23 21 20 20 20 20 19 18 17 16 16 16 15 14 13 12 11 7 4 360 356 352 347 342 337 333 329 323 317 312 308 305 302 296 287 277 269 263 260 258
39 39 39 39 39 39 39 38 38 38 37 36 35 34 34 33 32 32 32 31 31 31 30 29 27 26 25 24 23 21 20 18 17 17 17 16 16 14 13 12 12 11 10 9 10 9 6 2 358 355 351 348 344 339 334 329 325 321 316 311 308 305 303 301 296 287 277 268 262
38 38 39 38 38 38 37 37 37 36 35 34 34 33 32 31 31 30 30 29 29 28 27 26 24 22 21 20 20 19 18 17 16 15 14 13 13 12 11 10 9 7 5 5 5 5 2 359 355 351 348 345 342 338 334 331 328 323 319 314 310 307 305 303 302 301 298 290 278
37 37 37 37 37 37 36 35 34 33 33 32 32 31 30 29 29 29 29 28 27 25 24 23 21 19 18 17 16 16 16 15 13 12 11 9 9 9 8 7 5 4 3 2 0 358 356 354 351 348 345 342 339 337 334 332 330 326 322 317 313 310 307 306 303 302 301 300 296
35 35 35 36 36 36 34 34 33 31 30 30 29 29 28 27 26 27 27 26 24 22 21 20 19 17 15 15 14 14 13 12 10 9 7 5 4 3 2 1 0 360 359 358 355 353 351 349 347 345 343 340 337 335 333 331 330 328 325 322 317 312 309 307 304 302 300 298 297
34 34 34 35 35 34 33 32 31 30 29 28 27 27 26 25 25 25 24 23 21 19 18 16 15 14 13 13 12 12 11 10 8 6 4 2 0 359 357 356 355 355 356 354 351 349 347 345 344 342 341 339 336 333 331 329 327 326 324 323 319 315 311 308 305 302 300 298 295
32 32 32 33 33 32 32 31 30 28 27 26 25 25 24 24 23 23 21 20 18 17 15 12 11 11 11 11 10 9 8 7 5 3 0 358 357 356 354 353 352 353 353 352 349 347 345 343 342 341 340 338 335 332 329 326 323 321 320 319 318 317 314 311 308 305 302 299 297
31 31 31 31 30 30 29 28 28 27 26 25 24 24 24 23 22 21 19 18 16 14 12 10 10 10 10 9 7 6 5 4 2 360 357 355 353 352 350 350 349 350 352 351 348 344 342 341 340 339 339 338 335 332 328 324 321 319 318 316 316 315 314 313 310 307 304 301 299
29 29 29 29 28 27 26 26 25 25 24 23 23 23 22 21 20 18 17 15 13 12 11 10 10 9 8 7 5 4 2 0 359 357 354 352 349 347 346 345 346 347 349 349 345 342 340 339 338 337 337 337 335 331 327 324 321 319 317 315 314 313 313 312 309 306 304 302 300
28 28 27 27 26 25 24 23 23 23 22 22 22 21 20 18 17 17 15 13 11 10 10 10 9 7 6 5 3 2 360 358 356 354 352 349 347 345 343 342 342 344 345 344 342 339 338 337 336 336 336 335 333 330 327 324 322 319 317 315 313 312 310 308 306 305 303 302 300
26 26 26 25 23 22 22 21 21 20 20 20 20 18 17 16 15 15 14 12 10 9 9 8 7 5 3 2 -0 358 357 355 353 351 350 348 346 343 342 340 340 341 341 340 338 336 335 335 334 334 333 332 331 329 327 325 323 320 317 315 313 312 310 308 305 304 303 302 301
24 24 23 23 21 20 19 19 18 18 18 18 17 16 15 13 13 12 11 9 8 7 7 7 6 4 2 360 358 355 353 351 350 349 348 346 344 342 340 338 338 339 340 338 336 335 334 333 332 332 332 331 329 328 326 324 321 319 316 314 313 312 311 309 306 304 302 300 299
22 21 20 19 19 18 16 16 15 15 15 14 13 13 12 11 10 9 8 6 5 5 5 5 4 3 1 359 357 355 352 350 348 347 346 345 342 340 338 336 337 339 340 338 337 335 334 332 332 332 331 330 329 327 325 323 319 316 314 313 312 310 309 308 306 304 301 299 298
19 18 16 15 15 15 13 12 12 11 11 10 9 8 7 7 7 6 5 2 1 1 1 1 1 -0 358 357 355 354 352 350 347 346 346 344 341 338 336 334 335 337 339 338 337 335 333 332 332 332 332 331 329 327 325 322 319 315 313 311 309 308 308 307 306 304 301 299 297
17 15 13 12 12 11 11 10 9 8 7 6 5 4 3 2 1 1 0 359 356 355 355 355 355 355 353 351 350 349 350 349 348 346 345 344 342 338 335 333 333 336 338 337 336 333 332 331 331 332 331 330 328 326 324 321 318 315 313 311 308 307 307 307 305 304 302 299 297
15 14 12 11 10 10 9 9 8 6 4 3 2 1 0 359 358 357 356 355 352 350 349 349 348 348 346 344 341 341 343 346 346 344 343 342 340 337 333 330 331 334 337 337 335 332 330 330 330 331 330 329 327 325 323 320 318 315 313 311 309 308 307 307 305 304 301 299 298
13 13 12 11 10 9 9 8 7 5 3 1 0 0 359 358 356 355 354 353 351 349 347 345 345 344 342 339 336 335 336 338 340 339 337 335 334 332 328 326 327 331 335 337 334 331 329 328 329 329 329 327 325 323 321 319 316 314 312 311 310 309 308 307 306 304 302 300 300
13 13 13 13 12 10 8 7 6 5 3 2 0 360 359 357 355 354 354 354 353 351 349 347 345 346 345 343 340 337 335 335 336 336 334 331 329 326 323 320 321 325 329 333 333 330 328 327 327 327 327 326 324 322 320 317 315 313 311 310 310 310 309 308 307 305 303 302 302
14 14 14 14 13 11 8 6 5 4 4 3 2 -0 358 357 356 356 356 355 355 354 352 350 348 349 349 348 346 343 340 338 338 338 336 333 330 327 323 320 319 320 323 326 326 325 324 324 325 325 325 324 322 321 319 317 315 312 311 311 310 309 308 307 306 305 303 303 303